TimeCDT,TemperatureF,Dew PointF,Humidity,Sea Level PressureIn,VisibilityMPH,Wind Direction,Wind SpeedMPH,Gust SpeedMPH,PrecipitationIn,Events,Conditions,WindDirDegrees,DateUTC
12:15 AM,53.6,41.0,62,30.21,10.0,SE,3.5,-,N/A,,Clear,130,2011-10-04 05:15:00
12:35 AM,53.6,41.0,62,30.21,10.0,SE,5.8,-,N/A,,Clear,130,2011-10-04 05:35:00
12:55 AM,55.4,41.0,58,30.21,10.0,SE,4.6,-,N/A,,Clear,130,2011-10-04 05:55:00
1:15 AM,53.6,41.0,62,30.21,10.0,SE,4.6,-,N/A,,Clear,130,2011-10-04 06:15:00
1:35 AM,53.6,41.0,62,30.21,10.0,ESE,5.8,-,N/A,,Clear,120,2011-10-04 06:35:00
1:55 AM,53.6,41.0,62,30.21,10.0,SE,5.8,-,N/A,,Clear,130,2011-10-04 06:55:00
2:15 AM,51.8,39.2,62,30.21,10.0,SE,4.6,-,N/A,,Clear,130,2011-10-04 07:15:00
2:35 AM,51.8,39.2,62,30.21,10.0,SSE,3.5,-,N/A,,Clear,150,2011-10-04 07:35:00
2:55 AM,51.8,39.2,62,30.20,10.0,SSE,5.8,-,N/A,,Clear,150,2011-10-04 07:55:00
3:15 AM,53.6,39.2,58,30.20,10.0,SSE,5.8,-,N/A,,Clear,150,2011-10-04 08:15:00
3:35 AM,53.6,39.2,58,30.20,10.0,SSE,4.6,-,N/A,,Clear,150,2011-10-04 08:35:00
3:55 AM,51.8,37.4,58,30.20,10.0,SSE,4.6,-,N/A,,Clear,150,2011-10-04 08:55:00
4:15 AM,51.8,39.2,62,30.20,10.0,SE,4.6,-,N/A,,Clear,140,2011-10-04 09:15:00
4:35 AM,50.0,39.2,66,30.21,10.0,SE,3.5,-,N/A,,Clear,140,2011-10-04 09:35:00
4:55 AM,48.2,39.2,71,30.22,10.0,ESE,3.5,-,N/A,,Clear,110,2011-10-04 09:55:00
5:15 AM,48.2,39.2,71,30.21,10.0,ESE,4.6,-,N/A,,Clear,120,2011-10-04 10:15:00
5:35 AM,46.4,37.4,71,30.22,10.0,ESE,6.9,-,N/A,,Clear,110,2011-10-04 10:35:00
5:55 AM,46.4,37.4,71,30.22,10.0,ESE,6.9,-,N/A,,Clear,110,2011-10-04 10:55:00
6:15 AM,48.2,39.2,71,30.22,10.0,ESE,5.8,-,N/A,,Clear,120,2011-10-04 11:15:00
6:35 AM,48.2,39.2,71,30.22,10.0,SE,6.9,-,N/A,,Clear,130,2011-10-04 11:35:00
7:15 AM,50.0,39.2,66,30.23,10.0,ESE,5.8,-,N/A,,Clear,120,2011-10-04 12:15:00
7:35 AM,50.0,39.2,66,30.23,10.0,ESE,4.6,-,N/A,,Clear,120,2011-10-04 12:35:00
7:45 AM,51.8,39.2,62,30.23,10.0,ESE,5.8,-,N/A,,Clear,120,2011-10-04 12:45:00
7:55 AM,51.8,41.0,67,30.23,10.0,ESE,5.8,-,N/A,,Clear,120,2011-10-04 12:55:00
8:15 AM,53.6,42.8,67,30.24,10.0,ESE,6.9,-,N/A,,Clear,120,2011-10-04 13:15:00
8:35 AM,55.4,42.8,63,30.24,10.0,SE,4.6,-,N/A,,Clear,140,2011-10-04 13:35:00
8:55 AM,57.2,42.8,59,30.25,10.0,SE,6.9,-,N/A,,Clear,130,2011-10-04 13:55:00
9:15 AM,59.0,42.8,55,30.24,10.0,SE,9.2,-,N/A,,Clear,130,2011-10-04 14:15:00
9:35 AM,62.6,41.0,45,30.24,10.0,SE,6.9,-,N/A,,Clear,140,2011-10-04 14:35:00
10:15 AM,66.2,37.4,35,30.24,10.0,SE,8.1,-,N/A,,Clear,140,2011-10-04 15:15:00
10:35 AM,68.0,32.0,26,30.24,10.0,SSE,11.5,-,N/A,,Clear,160,2011-10-04 15:35:00
11:15 AM,71.6,26.6,19,30.23,10.0,SSE,10.4,-,N/A,,Clear,160,2011-10-04 16:15:00
11:35 AM,73.4,24.8,16,30.23,10.0,SSE,9.2,-,N/A,,Clear,160,2011-10-04 16:35:00
11:55 AM,75.2,17.6,11,30.22,10.0,South,10.4,-,N/A,,Clear,180,2011-10-04 16:55:00
12:15 PM,77.0,14.0,9,30.21,10.0,South,10.4,16.1,N/A,,Clear,180,2011-10-04 17:15:00
12:35 PM,78.8,12.2,8,30.21,10.0,South,11.5,19.6,N/A,,Clear,170,2011-10-04 17:35:00
1:15 PM,78.8,12.2,8,30.19,10.0,SSE,12.7,17.3,N/A,,Unknown,160,2011-10-04 18:15:00
1:35 PM,80.6,6.8,6,30.19,10.0,South,10.4,17.3,N/A,,Clear,180,2011-10-04 18:35:00
2:15 PM,80.6,-2.2,4,30.17,10.0,South,12.7,17.3,N/A,,Clear,190,2011-10-04 19:15:00
2:35 PM,82.4,-5.8,4,30.16,10.0,South,8.1,16.1,N/A,,Clear,170,2011-10-04 19:35:00
2:55 PM,82.4,-0.4,4,30.16,10.0,SSE,10.4,-,N/A,,Clear,160,2011-10-04 19:55:00
3:15 PM,82.4,-5.8,4,30.15,10.0,SE,11.5,17.3,N/A,,Clear,140,2011-10-04 20:15:00
3:35 PM,82.4,-14.8,4,30.14,10.0,SE,13.8,17.3,N/A,,Clear,140,2011-10-04 20:35:00
3:55 PM,80.6,-0.4,4,30.14,10.0,SSE,10.4,-,N/A,,Clear,150,2011-10-04 20:55:00
4:15 PM,80.6,-5.8,4,30.14,10.0,SSE,12.7,17.3,N/A,,Clear,150,2011-10-04 21:15:00
4:35 PM,80.6,-2.2,4,30.13,10.0,SSE,13.8,-,N/A,,Clear,150,2011-10-04 21:35:00
4:55 PM,80.6,-2.2,4,30.13,10.0,SSE,11.5,-,N/A,,Clear,150,2011-10-04 21:55:00
5:15 PM,80.6,-4.0,4,30.13,10.0,SSE,10.4,-,N/A,,Clear,160,2011-10-04 22:15:00
5:35 PM,78.8,3.2,5,30.12,10.0,SSE,9.2,-,N/A,,Clear,150,2011-10-04 22:35:00
5:55 PM,77.0,10.4,8,30.12,10.0,SSE,8.1,-,N/A,,Clear,150,2011-10-04 22:55:00
6:15 PM,75.2,14.0,10,30.12,10.0,SSE,8.1,-,N/A,,Clear,150,2011-10-04 23:15:00
6:35 PM,73.4,17.6,12,30.12,10.0,SSE,6.9,-,N/A,,Clear,150,2011-10-04 23:35:00
6:55 PM,69.8,23.0,17,30.12,10.0,SE,6.9,-,N/A,,Clear,140,2011-10-04 23:55:00
7:15 PM,68.0,26.6,21,30.12,10.0,SE,6.9,-,N/A,,Clear,130,2011-10-05 00:15:00
7:35 PM,68.0,28.4,23,30.12,10.0,SE,6.9,-,N/A,,Clear,140,2011-10-05 00:35:00
7:55 PM,68.0,28.4,23,30.13,10.0,SE,6.9,-,N/A,,Clear,140,2011-10-05 00:55:00
8:15 PM,66.2,30.2,26,30.13,10.0,SE,6.9,-,N/A,,Clear,130,2011-10-05 01:15:00
8:35 PM,66.2,30.2,26,30.13,10.0,SE,8.1,-,N/A,,Clear,130,2011-10-05 01:35:00
9:15 PM,64.4,32.0,30,30.13,10.0,SE,6.9,-,N/A,,Clear,140,2011-10-05 02:15:00
9:35 PM,64.4,33.8,32,30.13,10.0,SE,8.1,-,N/A,,Clear,130,2011-10-05 02:35:00
9:55 PM,64.4,33.8,32,30.13,10.0,SE,8.1,-,N/A,,Clear,140,2011-10-05 02:55:00
10:15 PM,64.4,35.6,34,30.13,10.0,SE,8.1,-,N/A,,Clear,140,2011-10-05 03:15:00
10:35 PM,62.6,35.6,37,30.13,10.0,SE,8.1,-,N/A,,Clear,140,2011-10-05 03:35:00
10:55 PM,62.6,35.6,37,30.13,10.0,SE,6.9,-,N/A,,Clear,140,2011-10-05 03:55:00
11:15 PM,62.6,35.6,37,30.13,10.0,SSE,8.1,-,N/A,,Clear,150,2011-10-05 04:15:00
11:35 PM,62.6,35.6,37,30.13,10.0,SSE,8.1,-,N/A,,Clear,150,2011-10-05 04:35:00
11:55 PM,62.6,35.6,37,30.13,10.0,SSE,8.1,-,N/A,,Clear,160,2011-10-05 04:55:00